Back to catalog

FENGYUN 1C DEB

LostPO
NORAD 37412·DEBRIS·🇨🇳 China

Launched May 10, 1999 from Taiyuan Satellite Launch Center

Loading…

Next Passes (next 24 hours)

TLE

StaleSource: Space-Track

Epoch: Feb 5, 2023, 07:15 UTC

1 37412U 99025EGE 23036.30269517  .00012411  00000-0  40607-2 0  9997
2 37412  98.9906 220.6212 0019860 184.7430 175.3571 14.38509018474076

Track FENGYUN 1C DEB in real time with AllMySat

Download on the App Store